TimeMDT,TemperatureF,Dew PointF,Humidity,Sea Level PressureIn,VisibilityMPH,Wind Direction,Wind SpeedMPH,Gust SpeedMPH,PrecipitationIn,Events,Conditions,WindDirDegrees,DateUTC
12:54 AM,19.0,9.0,65,30.03,10.0,SSE,3.5,-,N/A,,Clear,160,2013-04-11 06:54:00
1:54 AM,18.0,9.0,68,29.98,10.0,Calm,Calm,-,N/A,,Clear,0,2013-04-11 07:54:00
2:54 AM,15.1,6.1,68,29.94,10.0,Calm,Calm,-,N/A,,Clear,0,2013-04-11 08:54:00
3:54 AM,15.1,7.0,70,29.90,10.0,NNE,3.5,-,N/A,,Scattered Clouds,20,2013-04-11 09:54:00
4:54 AM,19.9,10.0,65,29.85,10.0,North,8.1,-,N/A,,Mostly Cloudy,360,2013-04-11 10:54:00
5:54 AM,24.1,12.0,60,29.84,10.0,WNW,3.5,-,N/A,,Mostly Cloudy,290,2013-04-11 11:54:00
6:54 AM,27.0,12.0,53,29.82,10.0,NNE,10.4,-,N/A,,Partly Cloudy,20,2013-04-11 12:54:00
7:54 AM,37.9,16.0,41,29.81,10.0,Calm,Calm,-,N/A,,Scattered Clouds,0,2013-04-11 13:54:00
8:54 AM,43.0,15.1,32,29.79,10.0,SSE,5.8,-,N/A,,Partly Cloudy,160,2013-04-11 14:54:00
9:54 AM,48.0,14.0,26,29.78,10.0,Calm,Calm,-,N/A,,Mostly Cloudy,0,2013-04-11 15:54:00
10:54 AM,51.8,15.8,24,29.76,10.0,Variable,6.9,23.0,N/A,,Scattered Clouds,0,2013-04-11 16:54:00
11:54 AM,52.0,16.0,24,29.79,10.0,South,8.1,-,N/A,,Mostly Cloudy,190,2013-04-11 17:54:00
12:54 PM,54.0,17.1,23,29.78,10.0,ESE,6.9,-,N/A,,Mostly Cloudy,110,2013-04-11 18:54:00
1:54 PM,54.0,23.0,30,29.79,10.0,NE,8.1,-,N/A,,Mostly Cloudy,40,2013-04-11 19:54:00
2:54 PM,55.0,24.1,30,29.81,10.0,North,11.5,18.4,N/A,,Mostly Cloudy,360,2013-04-11 20:54:00
3:39 PM,50.0,28.4,43,29.78,10.0,WNW,8.1,-,0.00,Rain,Light Rain,290,2013-04-11 21:39:00
3:54 PM,57.0,26.1,30,29.80,10.0,North,9.2,-,0.00,,Mostly Cloudy,10,2013-04-11 21:54:00
4:54 PM,48.0,30.9,52,29.84,10.0,NE,13.8,-,N/A,,Mostly Cloudy,40,2013-04-11 22:54:00
5:54 PM,46.9,30.0,52,29.86,10.0,North,12.7,28.8,N/A,,Mostly Cloudy,10,2013-04-11 23:54:00
6:54 PM,46.0,30.0,54,29.85,10.0,NE,13.8,-,N/A,,Scattered Clouds,40,2013-04-12 00:54:00
7:54 PM,39.9,28.9,65,29.84,10.0,NNE,10.4,-,N/A,,Scattered Clouds,30,2013-04-12 01:54:00
8:54 PM,37.9,28.9,70,29.88,10.0,North,4.6,-,N/A,,Scattered Clouds,10,2013-04-12 02:54:00
9:54 PM,37.9,28.9,70,29.88,10.0,NE,3.5,-,N/A,,Mostly Cloudy,50,2013-04-12 03:54:00
10:54 PM,37.9,28.9,70,29.88,10.0,NE,8.1,-,N/A,,Mostly Cloudy,40,2013-04-12 04:54:00
11:54 PM,39.0,28.9,67,29.88,10.0,Calm,Calm,-,N/A,,Overcast,0,2013-04-12 05:54:00